Wetbulb
57.11 57.08 57.20 57.20 57.65 57.35 56.65 55.95 55.70 55.30 55.24 55.05 55.57 55.67 55.55 54.94 55.21 54.18 49.91 54.42 56.39 60.57 58.02 52.07 53.05 52.83 50.83 47.51 48.17 46.80 39.53 37.42 40.15 43.10 43.98 45.62 46.49 45.62 49.20 52.09 52.88 53.53 55.69 57.18 56.34
57.45 57.46 57.37 57.53 56.64 56.48 56.13 55.90 55.32 56.14 55.17 55.62 55.55 55.18 54.78 54.71 53.27 53.56 58.91 61.28 61.52 61.10 52.15 50.90 49.32 50.81 46.87 45.69 47.57 43.52 39.22 40.23 44.70 46.06 43.36 43.34 44.72 45.58 47.78 52.00 52.59 54.44 57.35 56.70 55.41
57.48 57.58 57.39 57.20 56.62 56.31 56.07 55.76 55.27 55.60 54.60 54.76 54.73 54.50 54.55 54.63 53.43 54.14 61.63 61.82 62.13 60.37 52.21 53.22 52.58 50.90 46.64 44.99 44.48 41.32 39.50 42.41 43.50 45.67 44.61 42.96 43.74 45.16 46.27 46.73 54.04 54.04 54.65 55.10 54.58
56.62 56.40 56.54 56.48 56.50 56.16 55.75 55.08 55.22 55.12 54.41 54.01 54.34 54.23 54.65 53.25 45.38 51.70 61.89 62.80 63.31 57.08 53.76 53.78 51.61 49.05 46.01 44.98 45.20 39.60 42.16 43.37 43.20 43.84 43.07 42.97 43.64 43.44 43.78 46.74 56.85 57.61 57.25 56.41 55.09
55.37 55.17 55.54 55.65 56.15 56.08 55.27 54.89 54.74 54.24 53.62 53.23 53.55 53.89 52.70 52.14 51.26 56.10 62.46 63.22 60.98 57.05 53.70 52.31 51.26 48.90 44.59 44.04 43.79 41.27 42.03 43.50 44.34 45.85 43.41 44.21 42.70 43.32 43.10 47.67 58.05 58.23 57.91 56.85 56.62
54.84 54.86 55.07 55.40 56.42 56.14 54.93 54.71 54.19 53.78 52.82 52.61 53.01 53.79 50.93 47.17 56.21 54.68 57.86 58.55 55.53 54.29 54.15 53.53 51.79 50.50 47.25 45.24 42.83 43.87 43.23 42.87 43.54 44.30 44.64 43.50 42.80 44.79 44.01 47.15 56.45 57.44 56.50 57.24 57.69
55.00 55.12 54.98 55.33 56.42 55.81 54.67 54.34 53.81 53.03 52.20 52.57 52.96 52.86 52.67 52.49 56.35 54.36 54.26 53.63 54.52 55.01 52.78 52.58 53.70 49.03 47.98 45.28 45.90 44.34 40.62 41.68 41.15 43.39 42.85 45.47 41.30 41.45 45.87 47.40 54.84 56.55 57.03 57.02 57.47
54.79 55.42 55.68 55.88 55.02 54.25 53.92 53.75 53.29 52.28 52.03 52.24 52.53 51.81 49.85 57.68 55.09 52.58 51.86 52.34 53.81 54.46 53.28 53.34 52.80 50.68 46.82 46.29 45.37 42.60 41.08 37.27 42.48 44.61 45.30 43.28 37.95 43.59 44.23 44.98 46.77 51.26 54.55 54.89 55.52
55.42 56.10 55.70 55.20 54.50 53.77 53.52 52.88 52.20 51.93 52.31 52.28 49.96 51.76 47.48 58.48 51.47 53.58 52.24 51.63 53.20 53.88 52.98 53.06 51.49 46.45 45.83 40.24 37.90 39.31 34.78 37.51 40.58 45.12 43.99 41.89 38.82 43.40 44.89 44.94 43.79 43.44 46.19 49.55 51.76
55.68 55.66 55.39 54.99 54.41 53.47 52.54 52.27 53.87 53.05 52.42 54.03 54.44 49.16 53.88 52.46 51.81 51.57 51.75 52.67 52.20 51.76 50.60 48.89 45.90 42.45 41.35 38.85 33.39 35.83 37.15 35.62 38.77 41.62 42.95 40.25 39.27 43.44 44.71 47.23 47.73 48.49 50.06 51.47 51.35
55.60 55.62 55.35 55.03 54.43 54.03 52.31 50.00 47.99 47.17 51.65 46.90 49.00 50.75 50.97 51.59 51.22 49.77 51.86 51.26 51.30 49.07 43.82 46.85 42.24 38.01 39.98 41.84 42.73 42.82 39.80 38.32 38.87 43.37 42.12 41.32 41.03 42.43 46.47 48.79 48.12 48.84 50.39 50.53 49.98
55.34 55.20 55.13 54.85 54.63 54.01 50.77 53.38 53.30 52.89 45.84 53.24 54.00 52.12 52.56 50.69 48.48 49.63 52.76 48.49 48.06 43.44 45.51 42.79 38.85 43.48 45.60 45.93 44.17 43.26 41.36 39.66 42.09 44.96 42.06 41.04 39.72 43.44 46.66 46.82 48.20 48.78 49.14 49.24 49.61
54.73 54.99 54.83 54.37 53.99 51.73 50.39 53.60 58.53 56.82 45.70 48.51 51.03 50.15 51.05 52.41 47.99 47.83 50.89 49.13 46.08 43.61 43.10 40.35 43.14 46.88 46.08 43.82 43.07 41.94 40.45 39.55 40.26 41.78 41.53 42.72 38.89 42.07 44.70 46.01 46.84 46.89 48.26 49.59 49.71
54.24 54.52 53.53 53.75 51.30 53.57 52.39 56.51 57.22 54.80 37.80 42.69 47.17 49.24 51.70 51.55 47.59 50.64 51.16 49.19 47.45 43.35 44.01 43.05 46.61 46.16 44.31 43.06 42.76 39.44 44.42 43.42 41.59 38.25 33.56 39.02 30.82 38.53 41.80 43.51 45.67 46.81 46.97 48.51 49.08
53.85 54.24 53.12 53.59 51.62 54.86 57.00 59.93 58.24 53.83 25.03 44.36 47.49 53.35 50.61 48.66 48.90 48.65 51.77 50.78 45.22 43.98 44.59 42.13 43.63 43.63 42.66 42.90 44.48 42.60 45.05 42.60 41.59 37.61 36.06 37.32 33.89 36.94 42.37 40.77 42.16 43.30 45.95 46.49 47.69
53.97 54.40 53.09 52.64 52.42 56.24 60.48 58.39 51.65 38.31 27.85 43.33 47.66 46.75 45.61 47.75 48.02 48.38 48.90 51.52 50.17 45.99 44.89 43.95 46.53 44.65 43.50 46.01 45.48 45.80 43.84 42.72 41.19 38.18 29.88 37.88 35.86 35.06 38.03 41.35 43.86 44.51 45.32 46.44 46.57
54.10 54.47 52.74 58.78 56.17 60.16 59.18 49.90 37.64 29.69 46.01 41.47 43.46 46.66 45.40 44.52 46.38 47.03 45.14 43.10 41.02 38.01 38.57 43.02 43.36 45.43 46.61 43.44 45.40 43.22 39.43 32.31 30.36 27.61 27.60 40.56 36.60 37.05 42.81 45.01 45.40 44.80 44.99 45.69 46.24
54.57 53.33 53.91 58.81 62.50 59.95 53.49 44.58 31.19 42.07 41.97 45.48 45.27 45.59 43.29 45.29 44.82 45.75 43.57 39.98 43.38 43.33 39.46 37.24 34.52 42.14 45.67 42.60 40.02 40.59 38.81 30.64 26.60 24.24 31.58 38.19 32.65 35.90 43.52 46.96 47.61 47.57 46.29 46.81 46.95
54.38 54.52 58.85 59.41 61.78 56.61 48.99 34.84 38.23 42.52 45.02 44.39 45.02 42.04 41.94 44.81 44.74 43.40 40.80 40.16 41.85 42.32 38.79 37.16 37.62 44.05 44.08 44.47 43.94 41.19 34.56 39.84 33.10 30.50 28.07 32.34 36.83 41.24 44.54 44.44 45.95 46.53 47.32 44.83 44.44
54.35 53.78 52.88 59.75 58.69 52.81 44.64 39.99 44.86 47.23 47.48 45.69 40.36 43.32 39.37 41.74 42.01 41.85 41.28 44.07 43.77 44.34 44.00 41.15 35.47 41.79 44.11 46.41 45.46 40.94 42.24 34.74 31.22 24.67 22.74 29.64 32.72 34.59 39.27 41.10 42.34 41.87 42.06 43.64 44.38
54.26 46.20 51.72 60.36 52.62 46.26 38.20 42.09 46.73 48.59 49.87 45.27 43.61 42.02 43.18 41.43 42.48 41.36 41.66 44.13 45.89 45.52 43.89 42.54 38.48 37.82 43.48 40.20 38.44 40.10 38.37 38.13 36.42 30.21 24.33 21.60 28.61 39.25 41.24 41.67 41.02 41.92 42.90 42.93 43.19
51.29 43.29 56.21 51.07 39.78 42.20 41.47 48.03 46.98 47.03 49.60 48.31 47.58 46.37 43.35 43.91 42.87 41.97 41.87 43.81 47.58 46.17 39.89 41.94 36.82 28.76 37.29 42.69 43.67 41.05 39.48 37.62 27.16 30.68 27.50 24.99 28.90 41.19 40.99 42.53 43.88 43.66 43.81 44.38 43.78
48.20 49.72 56.49 49.50 32.69 31.84 46.36 47.79 47.81 46.43 46.41 46.78 45.95 47.11 47.03 43.59 39.97 43.36 43.49 46.60 45.90 44.31 41.61 41.39 34.44 27.66 34.16 40.34 41.69 39.55 40.37 41.30 36.33 29.46 28.28 22.12 26.47 42.66 42.78 42.44 43.16 41.80 42.85 42.71 42.76
49.83 40.75 46.66 48.84 45.89 45.05 44.13 44.30 44.77 48.47 47.70 48.28 46.79 47.76 45.17 43.40 44.93 42.02 42.88 46.27 45.34 43.76 44.96 44.72 38.80 32.60 29.24 33.61 36.04 33.09 37.22 39.35 36.71 26.51 28.73 28.48 33.59 38.03 39.59 40.38 41.39 41.58 41.39 40.65 40.95
50.61 43.09 44.44 34.89 39.29 45.74 46.33 45.77 44.18 43.35 47.47 47.78 45.29 45.96 43.76 38.30 40.97 40.65 43.30 43.69 45.06 44.81 44.16 41.71 33.67 35.17 36.17 38.03 37.67 36.58 35.96 35.90 35.30 34.76 29.96 33.43 34.29 38.68 39.48 40.00 41.07 41.83 41.39 41.06 40.28
49.43 46.02 45.58 40.30 44.69 44.87 44.66 44.66 44.73 45.53 45.65 44.40 43.33 45.88 45.03 39.85 41.78 40.07 42.54 41.33 41.04 43.06 42.59 41.05 31.91 30.54 30.72 38.33 37.36 33.42 36.06 36.25 36.39 36.90 36.10 36.90 35.81 40.71 41.26 41.36 40.41 40.11 39.59 39.65 40.22
53.90 51.42 47.71 42.43 41.14 41.56 40.63 45.08 45.98 46.87 46.03 47.83 46.07 43.14 40.72 44.13 44.63 44.59 44.95 45.57 44.91 42.36 37.91 35.20 29.82 27.83 27.11 32.37 31.49 26.44 33.57 37.30 37.50 38.55 37.15 31.06 37.27 39.86 39.20 39.68 38.35 38.24 38.90 38.69 38.72
MSLP
1018.33 1018.23 1017.97 1017.94 1017.84 1017.97 1017.73 1017.73 1017.99 1017.93 1017.95 1018.02 1017.83 1017.60 1017.35 1017.06 1016.29 1016.06 1014.65 1011.90 1011.74 1011.64 1011.90 1012.14 1012.46 1012.59 1012.79 1012.67 1012.43 1012.47 1012.94 1012.91 1012.16 1011.74 1011.41 1011.54 1011.10 1011.57 1011.97 1012.76 1013.13 1013.41 1013.97 1014.67 1016.00
1017.90 1017.65 1017.65 1017.45 1017.40 1017.47 1017.35 1017.46 1017.64 1017.64 1017.72 1017.65 1017.58 1017.34 1017.09 1016.83 1015.95 1014.13 1010.78 1010.78 1011.10 1011.48 1011.83 1011.91 1012.07 1012.52 1012.50 1012.37 1012.39 1012.66 1012.48 1011.80 1011.08 1011.36 1011.35 1011.28 1011.32 1011.61 1012.23 1012.91 1013.93 1014.13 1014.65 1015.17 1015.96
1017.33 1017.21 1017.12 1016.92 1016.95 1017.02 1017.02 1017.17 1017.32 1017.48 1017.55 1017.49 1017.27 1017.09 1016.83 1016.52 1015.32 1011.23 1009.40 1009.92 1010.65 1011.12 1011.33 1011.48 1011.74 1012.00 1012.27 1011.99 1011.80 1011.86 1011.82 1011.10 1010.46 1010.73 1010.95 1011.06 1011.24 1011.59 1012.54 1013.42 1013.65 1014.32 1015.07 1015.63 1016.01
1016.95 1016.82 1016.63 1016.56 1016.60 1016.62 1016.63 1016.89 1017.07 1017.14 1017.24 1017.21 1017.02 1016.78 1016.55 1016.33 1013.66 1009.47 1008.76 1009.23 1010.19 1011.12 1011.49 1011.20 1011.53 1011.87 1011.67 1011.56 1011.32 1011.44 1011.16 1010.71 1010.63 1010.91 1011.20 1011.23 1011.35 1012.09 1012.45 1012.61 1013.07 1013.60 1014.12 1015.19 1016.04
1016.56 1016.44 1016.30 1016.24 1016.23 1016.26 1016.40 1016.61 1016.83 1017.02 1017.06 1017.13 1016.86 1016.73 1016.43 1015.21 1011.83 1008.73 1008.88 1009.74 1010.51 1011.20 1011.12 1011.01 1011.03 1010.74 1010.67 1010.69 1010.71 1011.09 1011.02 1010.86 1010.99 1010.99 1011.27 1011.30 1011.49 1012.02 1012.30 1012.47 1013.15 1013.70 1014.49 1015.00 1015.60
1016.18 1016.07 1015.93 1015.91 1015.91 1015.94 1016.14 1016.42 1016.70 1016.83 1016.93 1016.88 1016.76 1016.71 1016.25 1013.51 1009.05 1008.65 1008.79 1009.71 1009.95 1010.14 1009.63 1009.85 1009.55 1009.41 1009.63 1010.09 1010.32 1010.61 1010.70 1010.98 1010.99 1011.22 1011.18 1011.55 1011.80 1011.83 1012.60 1012.95 1013.63 1013.91 1014.46 1014.87 1015.30
1015.72 1015.64 1015.58 1015.51 1015.55 1015.64 1015.94 1016.26 1016.45 1016.63 1016.70 1016.67 1016.61 1016.50 1015.23 1011.13 1008.69 1008.56 1008.89 1008.76 1008.80 1009.12 1009.07 1008.67 1008.35 1008.75 1008.77 1009.37 1009.96 1010.69 1011.34 1011.39 1011.41 1011.31 1011.35 1011.59 1012.46 1012.49 1012.62 1013.28 1013.86 1014.18 1014.45 1014.97 1015.07
1015.34 1015.23 1015.15 1015.16 1015.22 1015.46 1015.78 1016.05 1016.28 1016.45 1016.47 1016.49 1016.50 1016.26 1013.18 1009.13 1008.62 1008.70 1008.26 1008.05 1007.80 1007.95 1007.82 1007.96 1007.92 1008.28 1008.67 1009.35 1010.23 1011.02 1011.79 1012.31 1011.75 1011.69 1011.54 1011.98 1012.65 1012.76 1012.84 1013.34 1013.99 1014.43 1014.91 1015.15 1015.33
1014.98 1014.84 1014.78 1014.81 1014.94 1015.29 1015.63 1015.91 1016.10 1016.13 1016.26 1016.36 1016.41 1015.41 1011.90 1008.93 1008.64 1008.15 1008.06 1008.15 1008.03 1007.65 1007.66 1007.78 1008.15 1009.04 1009.62 1010.74 1011.56 1012.19 1012.55 1012.56 1012.23 1011.90 1012.09 1012.70 1013.07 1013.16 1013.28 1013.77 1014.39 1015.02 1016.26 1016.50 1016.73
1014.57 1014.38 1014.29 1014.40 1014.77 1015.15 1015.47 1015.72 1015.71 1015.73 1016.01 1015.92 1015.13 1014.40 1011.03 1009.34 1008.54 1008.18 1007.92 1008.15 1008.39 1008.41 1008.59 1008.60 1009.66 1010.51 1011.31 1011.81 1012.53 1012.73 1012.79 1012.62 1012.37 1012.44 1012.51 1013.44 1014.00 1014.06 1014.46 1015.11 1016.01 1016.59 1017.30 1017.71 1017.96
1014.04 1013.82 1013.96 1014.23 1014.63 1014.80 1015.21 1015.51 1015.79 1015.34 1014.64 1013.34 1012.59 1011.61 1009.93 1008.90 1008.44 1008.42 1008.31 1008.46 1008.63 1008.99 1009.84 1010.31 1011.22 1011.76 1011.81 1011.87 1012.10 1012.49 1012.33 1012.12 1012.14 1012.31 1012.93 1014.35 1015.28 1015.67 1015.84 1016.18 1017.06 1017.47 1018.07 1018.73 1019.00
1013.68 1013.67 1013.73 1014.13 1014.38 1014.58 1014.63 1014.06 1012.77 1012.37 1012.52 1011.56 1011.12 1010.52 1009.37 1008.72 1008.82 1008.72 1008.59 1009.09 1009.38 1010.08 1010.81 1011.57 1011.97 1011.79 1011.87 1011.98 1012.18 1012.34 1012.41 1012.81 1012.61 1012.68 1013.79 1015.52 1016.83 1017.19 1016.77 1017.47 1017.43 1017.92 1018.60 1019.16 1019.56
1013.52 1013.56 1013.62 1014.09 1014.44 1014.61 1014.11 1012.83 1011.31 1011.78 1011.92 1010.67 1009.96 1009.25 1008.82 1008.73 1008.96 1008.93 1009.01 1009.38 1009.78 1010.60 1011.25 1011.91 1011.97 1011.73 1012.14 1012.52 1012.69 1013.09 1012.99 1013.31 1013.57 1013.82 1014.79 1015.91 1017.97 1018.26 1018.42 1018.32 1018.43 1018.85 1019.18 1019.53 1019.92
1013.13 1013.34 1013.54 1014.18 1014.86 1013.74 1013.10 1011.27 1011.01 1011.62 1012.14 1010.78 1009.63 1008.77 1008.60 1008.76 1009.11 1008.91 1008.99 1009.57 1010.07 1011.03 1011.60 1012.14 1012.10 1012.22 1012.57 1012.89 1013.00 1013.23 1013.49 1013.75 1014.17 1014.75 1015.82 1015.87 1019.05 1019.63 1019.54 1019.31 1019.37 1019.67 1019.91 1020.18 1020.44
1012.91 1013.22 1013.56 1014.11 1013.63 1012.99 1011.74 1011.11 1011.09 1011.69 1012.06 1010.85 1009.60 1008.64 1008.70 1009.16 1009.35 1009.23 1008.99 1009.46 1010.41 1011.16 1012.03 1012.92 1012.78 1012.91 1012.95 1013.00 1012.99 1013.35 1013.36 1013.87 1014.48 1015.44 1016.16 1017.02 1018.43 1019.90 1019.75 1019.86 1020.18 1020.34 1020.55 1020.67 1020.60
1012.81 1013.15 1013.83 1014.21 1013.47 1011.79 1011.19 1011.15 1011.60 1012.55 1011.78 1010.53 1009.57 1009.24 1009.46 1009.52 1009.69 1009.71 1009.77 1010.19 1010.83 1011.75 1012.30 1012.88 1012.86 1012.95 1012.94 1012.88 1013.00 1013.37 1013.94 1014.92 1015.66 1016.70 1017.53 1017.64 1018.11 1019.68 1019.59 1019.49 1020.22 1020.65 1020.80 1020.91 1020.99
1012.68 1013.01 1013.59 1012.30 1012.02 1011.11 1011.12 1011.80 1012.83 1012.29 1011.24 1010.68 1010.11 1009.93 1010.02 1010.27 1010.35 1010.68 1011.39 1012.07 1012.71 1013.31 1013.78 1013.76 1013.79 1013.35 1013.11 1013.22 1013.33 1013.81 1014.91 1016.59 1017.99 1018.82 1019.10 1018.35 1018.60 1019.37 1019.16 1019.27 1019.43 1020.24 1020.86 1021.03 1021.31
1012.40 1012.87 1012.45 1011.75 1011.22 1011.07 1011.95 1013.03 1013.06 1011.73 1010.95 1010.28 1010.17 1010.41 1010.63 1010.76 1011.36 1011.81 1012.50 1013.37 1013.46 1013.76 1014.50 1014.69 1014.76 1014.13 1013.74 1013.86 1014.17 1014.63 1015.64 1017.43 1019.19 1020.36 1020.22 1019.42 1019.78 1019.66 1019.28 1019.28 1019.62 1020.01 1020.60 1020.77 1021.25
1012.42 1012.64 1012.27 1011.35 1011.13 1011.34 1013.03 1013.76 1012.55 1011.40 1010.32 1010.17 1010.43 1010.93 1011.09 1011.15 1011.81 1012.65 1013.59 1014.27 1014.42 1014.41 1014.68 1015.08 1015.16 1014.56 1014.23 1014.07 1014.43 1015.06 1016.22 1017.36 1019.41 1021.28 1021.58 1021.15 1020.71 1020.06 1019.65 1019.63 1019.74 1020.33 1020.52 1021.47 1022.21
1012.23 1012.55 1012.15 1011.13 1011.20 1012.15 1013.65 1013.35 1012.02 1010.69 1009.97 1009.77 1010.45 1010.82 1011.43 1011.73 1012.35 1013.19 1014.20 1014.73 1014.78 1014.67 1014.48 1015.09 1015.54 1015.20 1014.63 1014.35 1014.48 1015.01 1016.14 1017.80 1019.80 1022.06 1023.08 1022.27 1021.30 1020.36 1020.15 1019.99 1020.30 1020.90 1021.32 1022.21 1022.90
1012.27 1012.81 1011.78 1011.27 1011.69 1013.32 1014.22 1013.15 1011.48 1010.35 1009.83 1009.98 1010.37 1010.86 1011.35 1012.11 1012.83 1013.94 1014.98 1015.31 1015.31 1015.15 1015.00 1015.45 1016.02 1016.54 1015.78 1015.82 1015.80 1015.89 1016.82 1018.57 1020.43 1022.34 1023.34 1023.37 1021.93 1020.39 1020.25 1020.52 1020.99 1021.66 1022.14 1022.72 1023.51
1012.34 1013.25 1012.07 1011.82 1013.31 1014.12 1013.89 1012.43 1011.03 1010.42 1009.93 1010.08 1010.35 1010.71 1011.36 1012.46 1013.72 1014.68 1015.45 1015.75 1015.58 1015.66 1016.00 1016.48 1017.35 1017.80 1017.27 1016.41 1016.08 1016.43 1017.54 1018.96 1021.34 1023.03 1023.81 1023.56 1022.22 1020.70 1020.60 1020.84 1021.30 1022.21 1022.78 1023.49 1024.00
1012.48 1012.93 1012.35 1012.39 1013.84 1014.45 1013.25 1012.11 1011.10 1010.61 1010.41 1010.39 1010.82 1011.11 1011.78 1012.99 1014.42 1015.40 1015.88 1016.24 1016.06 1016.40 1016.84 1017.20 1018.30 1019.19 1018.74 1017.93 1017.12 1017.27 1017.89 1019.05 1020.94 1022.50 1023.70 1023.88 1022.53 1021.22 1021.39 1021.52 1022.25 1022.89 1023.68 1024.32 1024.52
1012.51 1013.32 1013.55 1013.57 1013.81 1013.75 1013.34 1012.22 1011.55 1010.90 1010.78 1010.76 1011.21 1011.53 1012.46 1013.77 1014.48 1015.77 1016.37 1016.64 1016.68 1017.05 1017.47 1017.93 1019.17 1019.72 1019.63 1018.99 1018.62 1018.38 1018.57 1019.37 1020.54 1022.26 1022.96 1022.89 1022.23 1022.15 1022.36 1022.53 1023.09 1023.77 1024.04 1024.31 1024.51
1011.96 1012.83 1012.53 1013.75 1014.06 1013.65 1013.21 1012.25 1011.89 1011.48 1011.27 1011.31 1011.85 1012.41 1013.22 1014.69 1015.50 1016.38 1016.83 1017.22 1017.46 1017.76 1018.27 1019.08 1020.60 1021.08 1020.88 1020.41 1019.68 1019.26 1019.21 1019.61 1020.36 1021.02 1021.88 1021.80 1022.19 1022.42 1022.75 1023.11 1023.57 1023.84 1024.02 1024.30 1024.63
1011.64 1012.15 1012.52 1012.86 1013.28 1013.61 1013.11 1012.67 1012.21 1012.02 1011.96 1012.26 1012.79 1013.39 1013.85 1015.17 1015.83 1016.57 1016.99 1017.65 1017.95 1018.60 1019.53 1020.61 1022.26 1022.67 1022.51 1021.78 1021.15 1020.22 1019.59 1019.45 1019.82 1020.19 1020.82 1021.54 1022.51 1022.78 1023.09 1023.60 1024.24 1024.50 1024.47 1024.59 1024.71
1010.81 1011.07 1011.57 1013.17 1013.67 1013.70 1013.10 1012.47 1012.43 1012.44 1012.78 1012.92 1013.72 1014.46 1015.26 1016.04 1016.32 1016.84 1017.30 1017.74 1018.33 1019.40 1021.11 1022.43 1023.81 1024.67 1024.57 1023.60 1022.37 1021.31 1019.60 1019.24 1019.45 1020.03 1020.44 1021.73 1022.31 1023.17 1023.88 1024.19 1024.50 1024.63 1024.56 1024.51 1024.42
Wind_Speed
15 15 14 14 11 12 12 12 12 11 11 11 11 12 12 14 16 4 7 13 8 8 4 3 3 2 2 3 3 3 3 2 4 4 7 5 12 4 4 8 2 2 8 16 11
16 14 15 12 14 13 13 12 12 9 10 9 10 11 11 13 4 8 14 11 11 11 6 7 5 5 3 3 4 5 3 5 7 5 6 3 8 6 6 7 6 9 9 9 14
15 15 15 14 14 14 13 12 11 9 8 8 9 10 11 10 4 10 10 18 12 11 3 4 1 5 5 1 4 2 4 5 5 8 8 7 5 3 11 3 12 19 12 12 11
14 15 14 14 14 13 12 11 10 8 7 7 8 10 11 3 4 4 6 12 12 7 2 2 3 3 4 8 6 2 3 3 3 4 4 9 7 5 4 8 17 22 21 13 12
14 15 14 14 13 12 11 10 8 7 6 6 7 9 4 2 10 9 5 10 9 7 6 6 6 7 6 4 5 7 4 5 8 7 4 5 4 6 2 10 16 17 16 15 14
13 14 13 13 12 10 10 8 7 5 4 5 6 7 2 4 5 4 7 7 5 6 6 8 8 8 7 10 7 5 8 7 6 4 3 5 1 5 4 8 15 17 15 15 16
12 12 12 12 9 8 8 7 6 4 3 4 4 3 2 13 4 7 7 6 7 7 4 6 6 3 2 7 7 9 7 4 1 3 2 6 3 3 6 10 18 16 16 14 15
11 11 11 8 8 7 7 6 5 4 3 4 3 2 7 6 4 9 3 6 6 8 1 2 0 2 4 2 5 6 6 3 4 5 2 5 6 6 6 11 13 14 12 11 10
11 10 8 7 7 8 6 5 5 5 5 3 3 2 9 11 1 7 0 3 7 5 5 3 5 3 8 5 6 7 4 3 3 7 3 3 3 6 7 8 9 4 9 8 8
9 6 6 6 7 8 6 5 4 1 3 5 5 1 6 4 3 1 3 2 1 5 7 8 7 5 5 6 3 5 4 5 7 6 4 5 4 5 5 14 11 12 14 16 16
6 3 7 8 9 9 5 3 1 2 3 7 4 4 4 3 2 1 4 4 2 5 1 7 7 3 3 4 4 3 3 7 3 5 5 8 8 6 9 18 15 16 17 15 15
4 3 8 9 9 8 2 1 3 4 5 9 9 8 6 2 3 4 3 2 2 2 3 7 2 3 4 5 6 3 8 5 5 7 8 10 10 7 9 10 15 17 14 13 13
3 5 9 9 10 4 2 7 3 2 1 3 4 3 2 2 2 1 3 1 3 2 3 7 5 2 5 6 7 5 7 3 3 2 9 17 9 9 7 10 11 10 10 11 14
2 6 11 11 3 3 4 6 4 6 5 4 3 3 4 3 3 1 3 2 5 8 6 5 6 5 5 4 1 2 3 4 3 4 7 2 5 4 5 11 12 11 10 11 12
2 7 12 8 1 3 4 6 2 5 5 5 1 2 2 2 4 3 1 4 0 3 7 4 4 6 5 0 2 4 2 2 2 4 3 3 8 5 5 7 7 6 8 7 8
3 8 12 5 2 6 5 3 6 10 2 3 4 4 2 1 1 3 2 7 2 6 6 4 2 3 1 3 1 1 1 7 5 3 4 4 7 6 5 7 5 4 6 7 8
5 10 9 1 3 4 3 6 7 6 2 3 4 4 4 2 2 4 5 7 4 6 3 5 4 5 4 5 6 8 6 4 6 6 5 3 8 2 4 5 10 9 8 8 8
3 11 10 4 3 2 5 7 2 4 5 3 5 4 4 3 5 3 4 4 6 5 4 4 5 4 6 2 1 3 5 6 5 3 3 5 4 2 5 11 11 9 8 8 8
8 2 2 3 2 4 7 4 7 6 4 6 5 5 2 2 7 7 4 2 2 1 6 5 0 2 0 2 2 3 4 4 7 4 4 1 4 3 5 6 9 8 9 6 8
4 3 3 1 2 7 6 5 3 2 3 6 6 5 4 5 4 5 2 3 3 6 1 2 5 2 3 5 6 6 2 5 5 2 1 3 3 5 5 4 6 6 7 10 9
4 4 5 3 6 6 3 6 2 2 5 4 2 4 6 7 5 3 3 3 5 5 6 2 5 5 4 3 1 5 3 6 5 4 5 2 6 5 7 7 10 8 8 9 9
4 3 4 5 4 1 2 4 2 3 4 5 4 4 5 4 6 4 4 3 7 2 2 2 6 3 1 3 1 2 3 5 6 2 2 5 6 3 5 10 13 10 9 10 10
5 3 3 7 4 3 5 4 2 2 2 2 3 4 3 5 7 3 4 2 7 4 2 2 2 4 7 5 7 4 2 5 6 4 3 6 7 2 4 8 7 11 10 8 6
4 3 4 4 1 6 3 1 2 4 3 5 4 6 5 5 6 5 3 3 4 3 2 3 4 5 8 5 3 0 2 4 5 4 4 7 6 5 5 10 8 9 8 7 6
2 5 7 4 4 3 3 3 3 2 1 4 4 3 5 4 4 4 3 2 4 3 3 4 4 2 2 4 1 1 2 1 4 5 6 7 7 6 6 7 7 7 7 8 6
3 4 3 4 6 5 5 6 9 3 4 1 2 4 7 5 6 8 7 3 4 1 4 5 2 1 1 5 6 3 5 5 4 4 5 9 6 4 6 9 7 6 6 5 3
1 1 6 4 5 4 4 6 8 8 3 3 12 8 10 1 5 5 4 6 6 6 3 4 5 4 4 5 6 6 5 3 2 4 3 6 6 6 5 6 6 6 6 5 3
Wind_Direction
284 283 284 281 271 267 271 273 275 278 282 293 302 309 312 312 302 176 235 222 186 196 154 126 158 191 114 245 190 178 54 263 226 132 126 248 97 21 92 103 117 312 132 150 132
281 279 276 273 270 266 268 269 269 267 285 297 306 311 312 322 272 245 236 226 204 158 166 183 211 131 251 215 189 152 166 221 218 159 158 184 114 139 95 97 42 70 83 110 135
282 275 269 267 264 263 262 266 270 273 282 299 310 309 317 321 296 246 202 208 181 182 215 187 119 158 204 235 222 183 176 248 36 158 142 149 111 96 117 65 148 138 140 141 141
278 272 268 261 259 260 261 262 266 279 291 311 312 315 321 278 256 266 209 189 155 147 143 175 161 181 213 210 209 157 214 131 81 114 109 148 135 88 186 189 152 154 156 148 159
274 268 263 257 255 255 255 259 266 276 297 307 306 324 323 241 251 256 176 100 121 160 208 190 192 191 211 172 130 138 147 76 97 84 108 127 125 135 102 135 152 149 156 163 173
271 265 259 252 248 246 248 253 258 274 295 293 306 328 238 263 245 347 174 142 183 194 219 183 207 206 230 169 157 176 122 141 119 132 110 117 67 94 263 124 148 157 169 175 181
272 262 253 246 230 231 238 243 254 265 272 282 302 276 256 240 241 327 199 204 183 192 232 201 203 230 43 86 126 139 91 45 155 209 165 120 25 200 183 146 157 174 182 190 193
268 256 239 225 223 222 226 235 246 248 259 264 258 232 251 249 286 287 353 312 342 193 228 283 243 227 80 91 48 91 59 122 254 158 237 99 245 244 183 145 170 186 189 198 200
263 250 227 207 204 210 215 222 232 233 221 231 169 211 270 314 315 271 294 355 317 320 326 5 49 66 32 66 25 16 187 215 312 206 123 100 269 233 189 162 191 181 55 49 68
259 239 204 189 185 182 192 202 165 249 197 206 250 324 275 253 217 317 334 357 339 335 359 30 48 54 33 69 199 241 229 211 183 215 223 103 10 16 26 78 78 76 79 69 66
269 240 183 172 178 176 174 172 66 77 201 193 192 234 274 231 63 323 304 339 11 49 46 1 59 143 219 184 201 221 238 167 148 178 109 99 68 51 83 99 93 88 87 82 66
273 200 165 173 169 166 205 158 219 186 305 227 246 257 269 177 93 275 55 53 43 214 79 26 130 233 326 30 41 91 77 359 21 20 90 93 48 47 79 94 107 109 102 101 95
234 184 158 160 146 143 159 239 229 67 186 304 208 190 247 84 136 188 90 62 232 49 139 144 208 324 92 38 61 36 104 70 136 32 54 101 42 81 53 78 80 74 98 94 100
210 186 146 147 207 166 245 261 288 124 72 291 348 290 354 112 36 275 100 148 24 138 112 95 353 88 86 69 101 67 155 146 129 85 157 126 138 13 119 94 96 104 101 105 105
193 186 154 180 268 162 265 313 342 62 72 250 245 219 300 96 159 321 246 42 101 169 94 242 67 69 70 30 86 206 8 64 76 106 86 53 98 176 199 112 120 117 115 124 129
205 175 146 256 236 242 299 352 55 47 209 201 141 161 72 343 186 178 42 34 61 75 53 91 135 75 265 305 236 283 41 37 49 65 41 297 124 203 208 155 122 117 138 144 120
227 179 176 225 232 293 4 46 41 117 193 158 169 156 160 159 160 72 69 40 61 76 31 40 1 324 38 36 13 41 56 15 16 13 210 312 55 238 154 152 138 138 153 151 144
180 146 234 240 289 344 52 48 151 209 200 188 132 114 133 123 360 48 63 42 358 46 113 130 352 358 326 89 248 356 117 147 166 176 257 5 86 302 135 128 155 150 160 159 151
146 208 289 263 277 65 70 66 208 213 176 139 96 110 114 88 127 85 62 122 36 13 133 132 135 294 25 320 120 318 52 165 105 351 67 265 39 4 170 133 124 188 193 138 85
128 84 275 254 72 62 73 232 239 317 16 98 147 152 158 194 115 101 125 335 338 20 150 180 106 315 343 31 5 104 173 41 6 94 58 335 191 200 198 137 99 59 91 92 87
72 80 262 58 62 51 158 239 272 20 77 81 183 183 175 188 132 70 39 6 21 333 44 74 96 286 41 29 341 5 28 60 105 108 148 141 271 240 169 141 117 112 104 107 102
110 102 297 58 71 5 201 215 296 44 11 36 91 60 100 109 62 80 122 31 334 345 51 39 115 96 170 271 306 138 120 104 109 245 76 137 267 330 158 138 133 132 116 105 95
124 143 337 86 141 286 283 283 110 105 325 74 67 66 94 117 98 77 90 357 32 54 83 27 16 64 353 347 347 96 115 107 101 82 198 120 260 167 56 91 91 113 104 103 109
106 91 348 50 194 157 233 225 99 44 32 73 111 63 74 63 36 122 99 31 34 64 349 83 80 145 176 197 186 140 58 139 116 113 188 209 217 166 136 115 104 104 110 108 98
97 216 176 211 283 198 164 177 129 101 27 69 22 128 141 106 73 103 91 89 16 353 57 81 112 38 68 38 34 243 118 93 185 199 159 240 205 139 142 132 125 119 105 82 62
139 134 28 180 143 187 157 202 174 188 125 260 147 58 92 124 168 189 136 156 182 72 61 8 141 358 96 14 18 326 309 262 230 216 231 107 73 88 89 97 102 120 111 104 98
275 351 111 291 103 95 221 174 198 135 23 92 132 94 73 41 107 90 83 100 129 126 97 58 118 72 255 13 355 357 226 221 110 6 223 186 166 144 122 133 153 152 148 152 176